Orbital Elements at Epoch 2456162.5 (2012-Aug-23.0) TDB
Reference: JPL 13 (heliocentric ecliptic J2000)
Element | Value | Uncertainty (1-sigma) | Units |
e | .5792439383964281 | 3.5577e-05 | |
a | 3.562980241068563 | 0.00031121 | au |
q | 1.499145533803354 | 7.296e-06 | au |
i | 11.4285782017345 | 0.00018148 | deg |
node | 111.2789608167202 | 0.00077 | deg |
peri | 222.1098868944044 | 0.0015536 | deg |
M | 4.410177935680985 | 0.00040077 | deg |
tp | 2456132.406537544596 (2012-Jul-23.90653754) | 0.0013814 | TDB |
period | 2456.510064207328 6.73 | 0.32185 0.0008812 | d yr |
n | .1465493690603566 | 1.9201e-05 | deg/d |
Q | 5.626814948333772 | 0.00049148 | au |
|
| | Orbit Determination Parameters
Additional Information
|